Simultaneous Nadir Overpasses (SNOs) Predictions

Prediction of SNOs between GOES-16 and NOAA-19 Satellite Orbit:

Table of predicted SNOs for the next 14.0 days since TLE Epoch: 10/18/2019
Index Date Time (GOES-16) GOES-16 Lat,Lon NOAA-19 Lat,Lon Distance(km) Time Diff (sec)
1 10/19/2019 10:07:39 0.02, -75.21 -0.40, -73.35 211.80 80
2 10/21/2019 22:28:52 -0.02, -75.20 -0.73, -78.37 361.65 80
3 10/22/2019 22:17:13 -0.02, -75.20 -0.10, -75.52 36.55 80
4 10/23/2019 22:08:14 -0.02, -75.20 0.58, -72.68 288.73 80
5 10/26/2019 10:29:13 0.03, -75.23 0.60, -77.64 274.74 80
6 10/27/2019 10:14:55 0.03, -75.24 -0.07, -74.80 51.04 80
7 10/28/2019 10:03:16 0.03, -75.25 -0.74, -71.95 376.90 80
8 10/30/2019 22:24:26 -0.04, -75.27 -0.43, -76.96 192.34 80
9 10/31/2019 22:15:27 -0.04, -75.29 0.21, -74.11 134.18 80




NCC Satellite Simultaneous Nadir Overpasses (SNOs) Prediction Service
